Wind_Speed
10 9 10 10 11 13 15 16 16 16 16 18 20 20 21 23 26 28 29 28 29 30 29 30 29 30 28 27 25 22 21 20 18 18 18 19 19 19 19 18 18 18 18 19
7 8 8 10 11 12 13 15 16 16 16 17 19 20 20 21 23 25 27 29 29 30 30 32 32 30 28 26 23 22 22 22 20 19 18 19 21 21 21 20 20 20 21 21
6 8 9 10 11 12 14 15 16 16 17 18 19 20 20 21 22 24 27 28 28 29 29 31 31 30 29 26 24 23 23 21 22 22 23 22 23 23 23 23 22 22 23 24
5 7 9 10 11 12 13 15 16 17 18 19 20 22 22 23 24 25 27 28 28 28 28 28 28 28 28 26 26 24 22 21 22 23 24 24 24 23 23 24 24 24 25 25
5 7 9 10 11 11 13 14 16 17 19 21 22 23 24 25 26 26 26 28 27 27 28 29 29 29 27 26 26 24 22 22 22 23 24 25 25 26 26 26 25 26 27 27
6 7 9 9 10 12 14 15 16 18 19 21 22 25 25 25 26 26 27 27 27 28 28 29 29 27 27 27 27 26 25 24 24 24 25 26 27 28 28 28 28 28 28 29
7 7 7 8 11 12 15 15 16 17 18 17 19 23 26 25 25 25 25 25 26 27 28 29 29 28 28 29 29 28 26 26 25 26 27 28 29 30 30 30 30 30 30 30
7 6 7 7 9 10 13 15 15 16 16 16 19 21 23 24 25 25 26 26 26 27 26 27 28 28 28 29 29 28 27 27 27 27 28 30 30 31 32 32 32 32 33 34
7 6 7 7 7 9 11 13 14 14 15 16 18 21 22 23 24 24 24 25 27 28 28 27 28 28 28 28 29 29 29 29 28 29 30 31 31 31 32 33 33 33 35 36
6 6 6 6 7 8 10 12 13 14 15 16 17 19 21 21 22 23 24 26 24 25 27 29 28 29 28 28 28 29 30 30 30 31 32 32 32 32 32 33 34 35 36 37
5 5 5 5 5 7 9 12 13 13 14 16 18 19 19 20 22 23 23 23 23 23 25 26 26 28 28 28 28 29 29 29 30 31 32 33 34 34 34 35 35 36 37 38
4 4 3 3 4 6 8 10 11 12 14 16 18 20 20 21 20 21 21 22 23 25 26 26 26 26 27 27 28 28 29 30 31 32 33 33 34 34 35 36 36 37 38 39
3 3 3 3 5 6 8 9 11 12 14 16 18 20 19 20 21 20 20 21 22 23 24 23 24 24 25 26 27 27 28 29 30 32 33 33 34 34 35 35 36 37 38 39
4 2 2 4 5 6 7 8 10 12 14 16 17 19 20 21 22 21 20 21 22 22 22 23 23 24 25 26 26 27 28 29 30 31 32 33 34 34 35 36 36 37 37 37
4 4 3 4 5 6 7 7 9 10 12 15 16 18 20 21 22 22 22 23 22 21 20 21 22 23 24 25 25 26 27 27 28 29 30 31 32 34 34 34 34 34 35 35
4 4 4 5 6 6 7 8 8 10 12 14 17 18 20 21 23 23 23 22 21 20 20 19 20 21 22 23 24 25 25 25 26 26 27 29 30 30 30 31 32 32 33 33
4 4 5 6 6 7 7 8 10 12 13 15 17 18 19 20 21 21 22 21 21 20 19 19 18 19 21 22 23 23 24 25 25 26 27 27 27 27 28 29 30 30 30 30
4 6 7 6 7 8 9 10 12 13 14 15 16 18 20 20 21 20 20 20 19 18 18 19 19 19 20 20 21 22 23 23 24 24 24 25 25 26 27 27 27 27 27 28
4 6 7 8 9 9 11 12 14 15 15 17 18 19 20 20 20 20 19 18 17 17 17 18 18 18 19 19 21 21 22 22 22 22 23 23 24 24 24 24 24 24 24 25
4 6 8 9 10 11 12 14 16 17 17 18 19 19 19 19 19 18 17 16 15 15 16 16 16 17 17 17 18 19 20 20 21 21 22 22 22 21 21 21 22 22 23 23
4 6 8 10 11 13 14 16 18 19 19 19 19 18 18 18 17 16 16 15 15 15 15 14 15 15 15 15 16 16 16 17 18 18 18 19 19 19 20 20 20 20 21 21
4 6 9 11 12 14 16 17 18 19 19 19 19 19 18 17 16 15 15 14 14 13 13 13 13 13 14 14 14 14 15 15 15 15 16 17 17 18 18 18 18 19 19 19
4 7 9 11 13 14 16 17 18 18 19 19 19 19 18 17 16 15 14 14 13 12 12 12 12 12 12 12 13 13 13 13 13 13 14 14 15 15 15 16 16 16 16 16
4 7 9 11 13 14 16 17 18 18 19 20 19 18 17 16 15 14 14 12 11 10 10 10 10 9 10 10 10 11 11 12 12 12 12 13 13 13 13 13 13 13 13 13
4 7 9 11 13 14 16 17 18 18 19 20 20 19 17 16 14 14 13 12 11 10 10 9 8 8 8 8 8 9 10 10 10 10 11 11 12 12 12 12 12 11 11 11
5 7 9 11 13 15 17 18 18 19 20 20 19 19 17 16 15 13 13 11 10 10 9 8 7 7 7 7 7 7 8 8 8 9 9 10 10 10 10 10 10 10 10 10
Wind_Direction
260 251 238 228 226 222 217 211 206 200 208 220 222 221 223 228 232 235 239 244 247 250 254 258 261 262 259 258 253 253 249 242 239 240 241 243 245 245 246 249 255 259 264 266
248 234 223 216 213 214 212 211 205 201 210 225 225 222 225 231 233 236 241 245 248 251 256 259 262 261 260 255 250 256 250 243 242 245 244 245 245 248 251 252 257 261 265 267
242 228 220 216 215 215 213 212 206 208 212 223 229 227 230 233 236 239 241 246 250 253 257 260 261 261 264 257 253 253 251 249 245 246 249 249 249 252 255 258 261 264 267 269
242 230 230 228 224 226 223 218 216 214 217 220 228 235 236 238 239 241 243 246 250 253 259 262 264 265 265 262 259 254 253 253 250 252 251 252 252 255 259 262 265 268 271 273
265 242 240 237 235 231 234 228 223 221 220 221 225 236 239 242 242 242 245 247 249 253 258 262 265 266 265 262 261 256 255 254 252 253 255 258 258 260 263 265 268 270 272 274
286 262 256 245 235 234 231 229 225 223 224 226 227 235 239 242 243 244 247 249 252 256 260 263 265 264 262 262 261 261 262 258 259 261 262 263 264 265 267 269 270 272 274 276
280 263 254 244 235 232 227 227 226 224 227 230 231 238 241 244 245 249 250 252 257 258 261 264 262 264 264 263 263 262 261 261 264 265 266 266 268 269 272 274 274 274 276 277
290 268 268 256 240 234 224 226 230 232 235 238 239 244 246 249 253 257 257 253 253 255 261 262 261 263 264 263 262 263 266 265 265 266 268 269 269 270 272 274 275 276 278 279
295 284 277 262 252 241 228 227 232 239 240 246 247 252 256 255 258 260 264 264 263 260 261 264 265 265 266 267 266 265 266 267 267 269 270 271 271 271 272 272 274 276 277 278
299 284 279 271 256 249 237 229 235 243 249 255 257 262 268 265 263 266 271 269 270 267 264 265 266 266 266 267 267 267 266 266 267 268 270 271 271 272 272 273 275 276 278 279
291 281 272 269 257 242 240 236 237 247 256 264 271 275 279 279 278 277 275 275 273 275 275 274 271 267 267 266 267 269 267 268 268 269 269 270 271 273 273 274 275 276 277 278
305 290 288 271 261 251 250 247 249 261 265 269 277 282 282 288 287 285 281 283 281 281 281 277 273 270 267 266 268 270 270 270 269 269 270 270 271 272 273 274 275 276 277 278
316 304 295 275 266 258 253 253 259 269 274 277 282 289 291 292 297 297 292 287 285 282 281 278 273 269 268 269 270 270 270 270 271 271 270 271 271 272 273 274 276 277 278 280
344 336 307 293 276 268 264 264 267 270 279 283 285 288 292 297 302 301 298 295 294 291 286 281 279 275 272 271 271 270 271 271 271 271 270 271 272 273 275 277 278 279 280 281
352 349 335 310 288 278 287 286 280 282 289 294 295 296 295 299 301 300 299 299 297 293 287 281 276 273 272 271 272 272 272 272 272 271 271 271 272 274 275 277 279 280 281 281
0 354 342 325 307 292 294 306 306 303 303 302 301 301 300 301 301 301 301 298 294 293 291 286 279 274 276 275 275 276 275 276 276 276 274 274 275 276 277 278 280 281 281 281
2 4 352 340 325 316 313 316 321 318 315 309 306 307 307 305 305 304 302 296 293 290 287 287 282 278 280 280 277 276 277 278 278 278 277 277 277 277 278 281 281 280 281 282
356 354 352 350 348 345 337 334 329 327 322 316 314 312 312 310 308 307 307 303 295 290 289 288 286 284 282 282 280 278 279 280 280 280 279 278 278 278 280 281 281 280 281 282
0 360 357 353 351 349 346 342 336 332 331 324 321 317 315 314 311 309 307 303 298 293 290 289 287 285 283 282 280 278 278 279 280 281 281 282 281 281 282 283 283 283 283 284
360 1 357 356 355 352 347 341 338 335 333 331 327 324 320 317 314 311 308 303 298 294 292 291 288 284 283 283 282 281 280 280 281 282 283 283 284 283 284 285 286 285 286 286
356 355 356 356 353 351 348 345 342 341 337 334 331 329 326 323 318 314 309 303 299 296 294 292 290 285 284 284 284 283 283 283 284 286 286 287 287 286 286 286 287 287 288 288
352 354 355 353 351 350 347 345 344 341 338 337 336 334 330 327 323 319 314 309 305 298 295 294 291 287 284 282 284 286 287 289 287 288 290 291 290 288 288 288 291 292 292 291
350 351 352 353 350 348 347 346 345 345 345 344 342 339 336 332 329 325 319 315 310 303 299 295 292 290 286 283 284 284 286 289 291 290 292 292 291 290 291 293 295 296 294 293
342 347 350 352 351 349 348 348 349 349 349 348 347 346 344 342 338 336 332 326 320 315 308 303 298 294 291 288 288 288 288 290 293 294 294 295 296 297 298 299 299 299 299 298
337 346 350 351 351 350 351 352 353 353 351 350 350 350 350 348 346 342 339 336 332 329 324 318 309 303 301 298 295 293 294 294 296 297 299 299 299 301 303 303 303 305 305 305
334 347 350 353 354 354 354 355 356 356 355 354 354 355 354 353 351 349 347 344 343 341 337 332 325 316 310 305 302 302 303 303 304 306 306 305 306 308 308 307 308 310 312 313
Height
5804 5806 5805 5806 5807 5809 5810 5812 5814 5817 5818 5819 5821 5824 5826 5829 5831 5833 5836 5838 5839 5840 5841 5843 5842 5842 5842 5843 5842 5844 5844 5845 5845 5847 5848 5850 5851 5851 5850 5851 5851 5853 5853 5853
5802 5802 5802 5802 5803 5805 5806 5808 5810 5813 5814 5816 5818 5819 5822 5824 5826 5829 5831 5832 5834 5836 5836 5837 5836 5835 5834 5835 5836 5837 5836 5836 5839 5841 5843 5844 5845 5845 5845 5846 5847 5847 5847 5847
5798 5799 5799 5799 5800 5802 5803 5805 5807 5809 5811 5812 5814 5816 5818 5819 5822 5823 5825 5827 5829 5830 5831 5831 5830 5829 5829 5830 5831 5831 5829 5829 5832 5835 5836 5838 5839 5840 5840 5841 5841 5841 5841 5841
5796 5796 5796 5796 5797 5798 5800 5802 5803 5805 5807 5809 5811 5812 5814 5815 5817 5819 5820 5822 5824 5824 5825 5825 5825 5823 5824 5824 5826 5825 5825 5826 5827 5829 5831 5832 5833 5834 5834 5834 5834 5834 5834 5834
5794 5793 5793 5793 5794 5795 5796 5798 5800 5801 5803 5805 5807 5808 5810 5810 5812 5814 5815 5816 5817 5818 5819 5819 5820 5818 5817 5818 5819 5820 5820 5821 5822 5823 5824 5826 5826 5827 5827 5827 5827 5827 5827 5826
5792 5791 5791 5791 5791 5792 5793 5795 5796 5798 5799 5802 5804 5804 5805 5805 5807 5808 5809 5810 5811 5812 5812 5812 5812 5812 5813 5813 5814 5814 5814 5815 5816 5817 5818 5819 5819 5819 5820 5819 5819 5819 5819 5819
5790 5789 5788 5788 5788 5789 5790 5792 5793 5795 5796 5799 5800 5799 5800 5800 5801 5802 5802 5804 5804 5805 5805 5805 5805 5805 5805 5806 5808 5809 5808 5809 5810 5811 5812 5812 5812 5812 5812 5811 5811 5811 5811 5811
5787 5788 5787 5786 5786 5786 5787 5789 5791 5792 5794 5795 5795 5794 5796 5796 5796 5797 5797 5797 5797 5798 5798 5798 5799 5799 5798 5799 5800 5802 5802 5802 5803 5803 5804 5804 5804 5804 5804 5804 5803 5803 5802 5801
5785 5786 5785 5784 5784 5785 5785 5786 5788 5789 5790 5791 5791 5791 5791 5791 5792 5791 5791 5790 5791 5791 5791 5792 5792 5792 5792 5793 5794 5794 5795 5795 5795 5796 5796 5796 5796 5795 5795 5795 5795 5794 5793 5791
5784 5783 5783 5783 5783 5783 5783 5784 5785 5786 5787 5787 5788 5787 5787 5786 5786 5786 5785 5784 5784 5783 5784 5784 5784 5785 5786 5786 5787 5787 5787 5787 5787 5788 5788 5787 5786 5786 5786 5786 5785 5785 5784 5782
5782 5782 5782 5781 5781 5781 5782 5782 5782 5783 5784 5784 5784 5786 5783 5782 5781 5780 5780 5779 5779 5778 5778 5778 5777 5778 5779 5779 5779 5779 5778 5778 5779 5779 5779 5779 5778 5778 5778 5777 5776 5776 5775 5773
5781 5781 5780 5780 5779 5779 5779 5780 5781 5782 5781 5780 5780 5783 5779 5777 5776 5775 5774 5773 5773 5773 5772 5771 5771 5771 5771 5771 5771 5771 5770 5770 5770 5770 5770 5770 5770 5769 5769 5768 5767 5766 5765 5764
5780 5780 5779 5779 5780 5779 5777 5778 5778 5778 5778 5777 5777 5778 5774 5772 5771 5769 5769 5767 5767 5766 5765 5764 5764 5763 5763 5763 5763 5763 5762 5762 5761 5761 5761 5761 5761 5760 5760 5759 5758 5757 5755 5754
5779 5779 5779 5778 5777 5776 5775 5776 5776 5775 5775 5774 5773 5772 5770 5768 5766 5764 5763 5762 5761 5759 5758 5758 5757 5757 5756 5756 5755 5755 5754 5754 5754 5753 5753 5752 5752 5752 5751 5750 5749 5747 5745 5744
5778 5778 5777 5776 5775 5774 5774 5773 5773 5772 5771 5770 5769 5767 5766 5764 5762 5759 5757 5756 5755 5753 5752 5751 5750 5749 5749 5748 5748 5747 5747 5746 5746 5745 5744 5744 5743 5743 5742 5740 5739 5738 5736 5734
5778 5777 5776 5775 5774 5773 5772 5771 5770 5769 5768 5766 5764 5763 5760 5758 5756 5754 5751 5750 5748 5747 5746 5745 5744 5743 5742 5741 5741 5740 5739 5739 5738 5737 5736 5735 5735 5734 5733 5732 5730 5728 5727 5725
5777 5776 5776 5774 5773 5772 5771 5769 5768 5766 5765 5763 5761 5759 5756 5753 5751 5748 5746 5744 5742 5741 5740 5739 5738 5736 5735 5734 5734 5733 5732 5731 5730 5730 5729 5728 5727 5726 5725 5723 5722 5720 5718 5717
5776 5775 5774 5773 5773 5770 5771 5767 5766 5764 5761 5759 5756 5753 5750 5748 5745 5742 5740 5738 5736 5735 5733 5732 5731 5730 5729 5728 5727 5726 5725 5724 5723 5722 5722 5720 5719 5718 5717 5716 5714 5712 5711 5709
5775 5775 5773 5772 5770 5769 5767 5764 5762 5760 5758 5755 5752 5748 5745 5742 5739 5737 5734 5732 5731 5729 5728 5727 5725 5724 5723 5722 5721 5720 5719 5718 5717 5716 5715 5713 5712 5711 5710 5708 5707 5705 5704 5702
5774 5774 5773 5771 5769 5767 5766 5763 5759 5758 5754 5751 5747 5744 5740 5737 5735 5733 5730 5728 5726 5724 5723 5721 5720 5719 5718 5716 5715 5714 5713 5712 5711 5710 5708 5707 5706 5705 5703 5702 5701 5699 5697 5695
5774 5773 5772 5770 5768 5765 5763 5760 5757 5755 5752 5747 5743 5740 5736 5733 5731 5728 5725 5723 5721 5720 5718 5716 5715 5714 5713 5712 5710 5709 5708 5707 5706 5704 5703 5702 5700 5699 5698 5696 5695 5693 5691 5689
5773 5772 5770 5768 5766 5766 5761 5758 5755 5752 5747 5743 5740 5736 5732 5729 5726 5723 5721 5719 5717 5715 5714 5712 5711 5709 5708 5707 5706 5705 5703 5702 5701 5700 5698 5697 5695 5694 5692 5691 5689 5687 5685 5683
5772 5771 5769 5768 5767 5763 5759 5756 5753 5749 5745 5741 5737 5733 5729 5726 5723 5720 5717 5715 5713 5711 5709 5708 5706 5705 5704 5703 5702 5701 5700 5698 5697 5696 5694 5693 5691 5689 5688 5686 5684 5682 5680 5679
5771 5770 5768 5766 5763 5761 5758 5754 5751 5747 5743 5739 5735 5731 5727 5723 5720 5717 5714 5712 5709 5707 5706 5704 5703 5701 5700 5699 5698 5697 5696 5695 5693 5692 5691 5689 5687 5686 5684 5682 5680 5678 5677 5675
5770 5768 5767 5765 5762 5759 5756 5753 5749 5745 5741 5737 5733 5729 5725 5721 5718 5715 5712 5709 5707 5705 5703 5701 5699 5698 5697 5696 5695 5693 5692 5691 5690 5688 5687 5686 5684 5682 5681 5679 5677 5675 5674 5672
5768 5768 5766 5764 5762 5759 5755 5751 5748 5744 5740 5736 5731 5727 5723 5720 5716 5713 5711 5708 5705 5703 5701 5699 5697 5695 5694 5693 5692 5690 5689 5688 5687 5685 5684 5683 5681 5680 5678 5676 5675 5673 5672 5670